This demonstration page uses our WeatherBlox Daily Observations layout. Learn more.

38.88101, -77.10428

Hourly Observations for September 2, 2018

Temp ( °F °C ) Dew Point ( °F °C ) Humidity (%) Winds ( mph kmh ) Pressure ( in mb ) Visibility ( mi km ) Precip ( " mm )
12:52 am 00:52 Cloudy 75 23.9 70 21.1 84 84 ESE 6 9 30.22 1023 10 16.0934 0 0
1:52 am 01:52 Mostly Cloudy 75 23.9 71 21.7 88 88 ESE 6 9 30.21 1023 10 16.0934 0 0
2:33 am 02:33 Mostly Cloudy 75 23.9 71 21.7 88 88 Calm 30.21 1023 10 16.0934 0 0
2:52 am 02:52 Mostly Cloudy 75 23.9 71 21.7 88 88 Calm 30.22 1023 10 16.0934 0 0
3:52 am 03:52 Cloudy 75 23.9 71 21.7 88 88 WSW 5 7 30.22 1023 10 16.0934 0 0
4:52 am 04:52 Mostly Cloudy 75 23.9 71 21.7 88 88 Calm 30.22 1023 10 16.0934 0 0
5:50 am 05:50 Mostly Cloudy 73 23 70 21 89 89 Calm 30.24 1024 10 16.0934 0 0
5:52 am 05:52 Mostly Cloudy 74 23.3 70 21.1 88 88 Calm 30.22 1024 10 16.0934 0 0
6:52 am 06:52 Mostly Cloudy 74 23.3 70 21.1 88 88 WNW 3 6 30.24 1024 10 16.0934 0 0
7:52 am 07:52 Mostly Cloudy 76 24.4 71 21.7 85 85 Calm 30.26 1025 10 16.0934 0 0
8:52 am 08:52 Mostly Cloudy 78 25.6 72 22.2 82 82 Calm 30.27 1025 10 16.0934 0 0
9:52 am 09:52 Mostly Cloudy 79 26.1 72 22.2 79 79 Calm 30.27 1025 10 16.0934 0 0
10:17 am 10:17 Mostly Cloudy 79 26.1 72 22.2 79 79 SSE 3 6 30.27 1025 10 16.0934 0 0
10:52 am 10:52 Mostly Cloudy 80 26.7 72 22.2 76 76 SSE 5 7 30.27 1025 10 16.0934 0 0
11:52 am 11:52 Mostly Cloudy 82 27.8 72 22.2 72 72 SE 5 7 30.26 1025 10 16.0934 0 0
12:52 pm 12:52 Mostly Cloudy 84 28.9 72 22.2 67 67 SE 5 7 30.24 1024 10 16.0934 0 0
1:52 pm 13:52 Partly Cloudy 86 30 72 22.2 63 63 S 3 6 30.22 1023 10 16.0934 0 0
2:52 pm 14:52 Partly Cloudy 87 30.6 73 22.8 63 63 S 6 9 30.21 1023 10 16.0934 0 0
3:52 pm 15:52 Partly Cloudy 88 31.1 73 22.8 61 61 S 7 11 30.19 1022 10 16.0934 0 0
4:52 pm 16:52 Partly Cloudy 89 31.7 73 22.8 59 59 S 6 9 30.18 1022 10 16.0934 0 0
5:52 pm 17:52 Mostly Cloudy 88 31.1 73 22.8 61 61 S 7 11 30.17 1022 10 16.0934 0 0
6:52 pm 18:52 Partly Cloudy 87 30.6 73 22.8 63 63 S 7 11 30.18 1022 10 16.0934 0 0
7:52 pm 19:52 Partly Cloudy 86 30 70 21.1 59 59 SW 6 9 30.18 1022 10 16.0934 0 0
8:52 pm 20:52 Partly Cloudy 83 28.3 75 23.9 77 77 S 7 11 30.2 1023 10 16.0934 0 0
9:52 pm 21:52 Partly Cloudy 82 27.8 75 23.9 79 79 SSE 5 7 30.22 1023 10 16.0934 0 0
10:52 pm 22:52 Mostly Clear 82 27.8 74 23.3 77 77 S 3 6 30.23 1024 10 16.0934 0 0
11:52 pm 23:52 Mostly Clear 81 27.2 75 23.9 82 82 S 7 11 30.23 1024 10 16.0934 0 0

Powered by AerisWeather